Year,Month,Day,Hour,Minute,Value (Times are PST for temperature in C)
2007,04,08,00,00,10.90
2007,04,08,00,01,10.90
2007,04,08,00,02,10.90
2007,04,08,00,03,10.90
2007,04,08,00,04,10.90
2007,04,08,00,05,10.90
2007,04,08,00,06,10.90
2007,04,08,00,07,10.90
2007,04,08,00,08,10.90
2007,04,08,00,09,10.90
2007,04,08,00,10,10.90
2007,04,08,00,11,10.90
2007,04,08,00,12,10.90
2007,04,08,00,13,10.90
2007,04,08,00,14,10.90
2007,04,08,00,15,10.90
2007,04,08,00,16,10.90
2007,04,08,00,17,10.90
2007,04,08,00,18,10.90
2007,04,08,00,19,10.90
2007,04,08,00,20,10.90
2007,04,08,00,21,10.90
2007,04,08,00,22,10.90
2007,04,08,00,23,10.90
2007,04,08,00,24,10.90
2007,04,08,00,25,10.90
2007,04,08,00,26,10.90
2007,04,08,00,27,10.90
2007,04,08,00,28,10.90
2007,04,08,00,29,10.90
2007,04,08,00,30,10.90
2007,04,08,00,31,10.90
2007,04,08,00,32,10.90
2007,04,08,00,33,10.90
2007,04,08,00,34,10.90
2007,04,08,00,35,10.90
2007,04,08,00,36,10.90
2007,04,08,00,37,10.90
2007,04,08,00,38,10.90
2007,04,08,00,39,10.90
2007,04,08,00,40,10.90
2007,04,08,00,41,10.90
2007,04,08,00,42,11.00
2007,04,08,00,43,11.00
2007,04,08,00,44,11.00
2007,04,08,00,45,11.00
2007,04,08,00,46,11.00
2007,04,08,00,47,11.00
2007,04,08,00,48,11.00
2007,04,08,00,49,11.00
2007,04,08,00,50,11.00
2007,04,08,00,51,11.00
2007,04,08,00,52,11.10
2007,04,08,00,53,11.00
2007,04,08,00,54,11.10
2007,04,08,00,55,11.10
2007,04,08,00,56,11.10
2007,04,08,00,57,11.00
2007,04,08,00,58,11.10
2007,04,08,00,59,11.10
2007,04,08,01,00,11.10
2007,04,08,01,01,11.10
2007,04,08,01,02,11.10
2007,04,08,01,03,11.10
2007,04,08,01,04,11.00
2007,04,08,01,05,11.10
2007,04,08,01,06,11.00
2007,04,08,01,07,11.00
2007,04,08,01,08,11.00
2007,04,08,01,09,11.00
2007,04,08,01,10,11.00
2007,04,08,01,11,11.10
2007,04,08,01,12,11.00
2007,04,08,01,13,11.00
2007,04,08,01,14,11.00
2007,04,08,01,15,11.10
2007,04,08,01,16,11.10
2007,04,08,01,17,11.10
2007,04,08,01,18,11.10
2007,04,08,01,19,11.20
2007,04,08,01,20,11.10
2007,04,08,01,21,11.10
2007,04,08,01,22,11.20
2007,04,08,01,23,11.20
2007,04,08,01,24,11.20
2007,04,08,01,25,11.20
2007,04,08,01,26,11.20
2007,04,08,01,27,11.10
2007,04,08,01,28,11.10
2007,04,08,01,29,11.10
2007,04,08,01,30,11.10
2007,04,08,01,31,11.10
2007,04,08,01,32,11.10
2007,04,08,01,33,11.10
2007,04,08,01,34,11.10
2007,04,08,01,35,11.10
2007,04,08,01,36,11.10
2007,04,08,01,37,11.10
2007,04,08,01,38,11.10
2007,04,08,01,39,11.10
2007,04,08,01,40,11.10
2007,04,08,01,41,11.10
2007,04,08,01,42,11.10
2007,04,08,01,43,11.10
2007,04,08,01,44,11.10
2007,04,08,01,45,11.20
2007,04,08,01,46,11.20
2007,04,08,01,47,11.20
2007,04,08,01,48,11.20
2007,04,08,01,49,11.20
2007,04,08,01,50,11.20
2007,04,08,01,51,11.10
2007,04,08,01,52,11.10
2007,04,08,01,53,11.20
2007,04,08,01,54,11.10
2007,04,08,01,55,11.10
2007,04,08,01,56,11.10
2007,04,08,01,57,11.10
2007,04,08,01,58,11.10
2007,04,08,01,59,11.10
2007,04,08,02,00,11.10
2007,04,08,02,01,11.10
2007,04,08,02,02,11.10
2007,04,08,02,03,11.10
2007,04,08,02,04,11.10
2007,04,08,02,05,11.10
2007,04,08,02,06,11.10
2007,04,08,02,07,11.10
2007,04,08,02,08,11.10
2007,04,08,02,09,11.10
2007,04,08,02,10,11.00
2007,04,08,02,11,11.00
2007,04,08,02,12,11.00
2007,04,08,02,13,11.00
2007,04,08,02,14,11.00
2007,04,08,02,15,11.00
2007,04,08,02,16,11.00
2007,04,08,02,17,11.00
2007,04,08,02,18,11.00
2007,04,08,02,19,11.00
2007,04,08,02,20,11.00
2007,04,08,02,21,11.00
2007,04,08,02,22,11.00
2007,04,08,02,23,11.00
2007,04,08,02,24,11.00
2007,04,08,02,25,11.00
2007,04,08,02,26,11.00
2007,04,08,02,27,11.00
2007,04,08,02,28,11.00
2007,04,08,02,29,11.00
2007,04,08,02,30,11.00
2007,04,08,02,31,11.00
2007,04,08,02,32,11.00
2007,04,08,02,33,11.00
2007,04,08,02,34,11.00
2007,04,08,02,35,11.00
2007,04,08,02,36,11.00
2007,04,08,02,37,11.00
2007,04,08,02,38,11.00
2007,04,08,02,39,11.00
2007,04,08,02,40,11.00
2007,04,08,02,41,11.10
2007,04,08,02,42,11.10
2007,04,08,02,43,11.10
2007,04,08,02,44,11.10
2007,04,08,02,45,11.10
2007,04,08,02,46,11.10
2007,04,08,02,47,11.10
2007,04,08,02,48,11.10
2007,04,08,02,49,11.10
2007,04,08,02,50,11.10
2007,04,08,02,51,11.10
2007,04,08,02,52,11.10
2007,04,08,02,53,11.10
2007,04,08,02,54,11.10
2007,04,08,02,55,11.10
2007,04,08,02,56,11.10
2007,04,08,02,57,11.10
2007,04,08,02,58,11.10
2007,04,08,02,59,11.10
2007,04,08,03,00,11.10
2007,04,08,03,01,11.10
2007,04,08,03,02,11.00
2007,04,08,03,03,11.00
2007,04,08,03,04,11.00
2007,04,08,03,05,11.00
2007,04,08,03,06,11.00
2007,04,08,03,07,11.00
2007,04,08,03,08,11.00
2007,04,08,03,09,11.00
2007,04,08,03,10,11.00
2007,04,08,03,11,11.00
2007,04,08,03,12,11.00
2007,04,08,03,13,11.00
2007,04,08,03,14,11.00
2007,04,08,03,15,11.00
2007,04,08,03,16,11.00
2007,04,08,03,17,11.00
2007,04,08,03,18,11.00
2007,04,08,03,19,11.00
2007,04,08,03,20,11.00
2007,04,08,03,21,10.90
2007,04,08,03,22,10.90
2007,04,08,03,23,10.90
2007,04,08,03,24,10.90
2007,04,08,03,25,10.90
2007,04,08,03,26,10.90
2007,04,08,03,27,10.90
2007,04,08,03,28,10.90
2007,04,08,03,29,10.90
2007,04,08,03,30,10.90
2007,04,08,03,31,10.90
2007,04,08,03,32,10.90
2007,04,08,03,33,10.90
2007,04,08,03,34,10.90
2007,04,08,03,35,10.90
2007,04,08,03,36,10.90
2007,04,08,03,37,10.90
2007,04,08,03,38,10.80
2007,04,08,03,39,10.80
2007,04,08,03,40,10.80
2007,04,08,03,41,10.80
2007,04,08,03,42,10.80
2007,04,08,03,43,10.80
2007,04,08,03,44,10.80
2007,04,08,03,45,10.80
2007,04,08,03,46,10.80
2007,04,08,03,47,10.80
2007,04,08,03,48,10.80
2007,04,08,03,49,10.80
2007,04,08,03,50,10.80
2007,04,08,03,51,10.80
2007,04,08,03,52,10.80
2007,04,08,03,53,10.80
2007,04,08,03,54,10.80
2007,04,08,03,55,10.80
2007,04,08,03,56,10.70
2007,04,08,03,57,10.70
2007,04,08,03,58,10.70
2007,04,08,03,59,10.70
2007,04,08,04,00,10.70
2007,04,08,04,01,10.70
2007,04,08,04,02,10.60
2007,04,08,04,03,10.60
2007,04,08,04,04,10.50
2007,04,08,04,05,10.40
2007,04,08,04,06,10.40
2007,04,08,04,08,10.40
2007,04,08,04,09,10.40
2007,04,08,04,10,10.40
2007,04,08,04,11,10.40
2007,04,08,04,12,10.40
2007,04,08,04,13,10.40
2007,04,08,04,14,10.40
2007,04,08,04,15,10.40
2007,04,08,04,16,10.50
2007,04,08,04,17,10.50
2007,04,08,04,18,10.50
2007,04,08,04,19,10.50
2007,04,08,04,20,10.50
2007,04,08,04,21,10.50
2007,04,08,04,22,10.50
2007,04,08,04,23,10.50
2007,04,08,04,24,10.50
2007,04,08,04,25,10.40
2007,04,08,04,26,10.40
2007,04,08,04,27,10.40
2007,04,08,04,28,10.40
2007,04,08,04,29,10.30
2007,04,08,04,30,10.30
2007,04,08,04,31,10.30
2007,04,08,04,32,10.30
2007,04,08,04,33,10.30
2007,04,08,04,34,10.30
2007,04,08,04,35,10.20
2007,04,08,04,36,10.20
2007,04,08,04,37,10.20
2007,04,08,04,38,10.20
2007,04,08,04,39,10.20
2007,04,08,04,40,10.20
2007,04,08,04,41,10.20
2007,04,08,04,42,10.20
2007,04,08,04,43,10.10
2007,04,08,04,44,10.10
2007,04,08,04,45,10.10
2007,04,08,04,46,10.10
2007,04,08,04,47,10.10
2007,04,08,04,48,10.10
2007,04,08,04,49,10.10
2007,04,08,04,50,10.10
2007,04,08,04,51,10.10
2007,04,08,04,52,10.10
2007,04,08,04,53,10.10
2007,04,08,04,54,10.00
2007,04,08,04,55,10.00
2007,04,08,04,56,10.00
2007,04,08,04,57,9.90
2007,04,08,04,58,9.90
2007,04,08,04,59,9.90
2007,04,08,05,00,9.90
2007,04,08,05,01,9.90
2007,04,08,05,02,9.90
2007,04,08,05,03,9.90
2007,04,08,05,04,9.80
2007,04,08,05,05,9.80
2007,04,08,05,06,9.80
2007,04,08,05,07,9.80
2007,04,08,05,08,9.80
2007,04,08,05,09,9.70
2007,04,08,05,10,9.70
2007,04,08,05,11,9.70
2007,04,08,05,12,9.60
2007,04,08,05,13,9.60
2007,04,08,05,14,9.60
2007,04,08,05,15,9.60
2007,04,08,05,16,9.60
2007,04,08,05,17,9.60
2007,04,08,05,18,9.50
2007,04,08,05,19,9.50
2007,04,08,05,20,9.50
2007,04,08,05,21,9.50
2007,04,08,05,22,9.40
2007,04,08,05,23,9.40
2007,04,08,05,24,9.40
2007,04,08,05,25,9.50
2007,04,08,05,26,9.50
2007,04,08,05,27,9.50
2007,04,08,05,28,9.50
2007,04,08,05,29,9.50
2007,04,08,05,30,9.50
2007,04,08,05,31,9.50
2007,04,08,05,32,9.50
2007,04,08,05,33,9.50
2007,04,08,05,34,9.40
2007,04,08,05,35,9.40
2007,04,08,05,36,9.40
2007,04,08,05,37,9.40
2007,04,08,05,38,9.40
2007,04,08,05,39,9.40
2007,04,08,05,40,9.40
2007,04,08,05,41,9.40
2007,04,08,05,42,9.40
2007,04,08,05,43,9.30
2007,04,08,05,44,9.30
2007,04,08,05,45,9.30
2007,04,08,05,46,9.30
2007,04,08,05,47,9.30
2007,04,08,05,48,9.30
2007,04,08,05,49,9.20
2007,04,08,05,50,9.20
2007,04,08,05,51,9.20
2007,04,08,05,52,9.20
2007,04,08,05,53,9.20
2007,04,08,05,54,9.20
2007,04,08,05,55,9.20
2007,04,08,05,56,9.20
2007,04,08,05,57,9.20
2007,04,08,05,58,9.10
2007,04,08,05,59,9.10
2007,04,08,06,00,9.10
2007,04,08,06,01,9.10
2007,04,08,06,02,9.10
2007,04,08,06,03,9.10
2007,04,08,06,04,9.10
2007,04,08,06,05,9.10
2007,04,08,06,06,9.10
2007,04,08,06,07,9.10
2007,04,08,06,08,9.10
2007,04,08,06,09,9.10
2007,04,08,06,10,9.10
2007,04,08,06,11,9.10
2007,04,08,06,12,9.10
2007,04,08,06,13,9.00
2007,04,08,06,14,9.00
2007,04,08,06,15,9.00
2007,04,08,06,16,9.00
2007,04,08,06,17,9.00
2007,04,08,06,18,9.00
2007,04,08,06,19,9.00
2007,04,08,06,20,9.00
2007,04,08,06,21,9.00
2007,04,08,06,22,9.00
2007,04,08,06,23,9.00
2007,04,08,06,24,9.00
2007,04,08,06,25,9.00
2007,04,08,06,26,9.00
2007,04,08,06,27,9.00
2007,04,08,06,28,9.00
2007,04,08,06,29,9.00
2007,04,08,06,30,9.00
2007,04,08,06,31,9.00
2007,04,08,06,32,9.00
2007,04,08,06,33,9.00
2007,04,08,06,34,9.00
2007,04,08,06,35,9.00
2007,04,08,06,36,9.00
2007,04,08,06,37,9.00
2007,04,08,06,38,9.00
2007,04,08,06,39,9.00
2007,04,08,06,40,9.00
2007,04,08,06,41,9.00
2007,04,08,06,42,9.00
2007,04,08,06,43,9.00
2007,04,08,06,44,9.00
2007,04,08,06,45,9.00
2007,04,08,06,46,9.00
2007,04,08,06,47,9.00
2007,04,08,06,48,9.00
2007,04,08,06,49,9.00
2007,04,08,06,50,9.00
2007,04,08,06,51,9.00
2007,04,08,06,52,9.00
2007,04,08,06,53,9.00
2007,04,08,06,54,9.00
2007,04,08,06,55,9.00
2007,04,08,06,56,9.00
2007,04,08,06,57,9.00
2007,04,08,06,58,9.00
2007,04,08,06,59,9.10
2007,04,08,07,00,9.00
2007,04,08,07,01,9.10
2007,04,08,07,02,9.10
2007,04,08,07,03,9.10
2007,04,08,07,04,9.10
2007,04,08,07,05,9.10
2007,04,08,07,06,9.10
2007,04,08,07,07,9.10
2007,04,08,07,08,9.10
2007,04,08,07,09,9.10
2007,04,08,07,10,9.10
2007,04,08,07,11,9.10
2007,04,08,07,12,9.10
2007,04,08,07,13,9.10
2007,04,08,07,14,9.10
2007,04,08,07,15,9.10
2007,04,08,07,16,9.10
2007,04,08,07,17,9.10
2007,04,08,07,18,9.10
2007,04,08,07,19,9.00
2007,04,08,07,20,9.10
2007,04,08,07,21,9.10
2007,04,08,07,22,9.10
2007,04,08,07,23,9.10
2007,04,08,07,24,9.10
2007,04,08,07,25,9.10
2007,04,08,07,26,9.10
2007,04,08,07,27,9.10
2007,04,08,07,28,9.10
2007,04,08,07,29,9.10
2007,04,08,07,30,9.10
2007,04,08,07,31,9.10
2007,04,08,07,32,9.10
2007,04,08,07,33,9.10
2007,04,08,07,34,9.10
2007,04,08,07,35,9.10
2007,04,08,07,36,9.10
2007,04,08,07,37,9.10
2007,04,08,07,38,9.10
2007,04,08,07,39,9.10
2007,04,08,07,40,9.10
2007,04,08,07,41,9.10
2007,04,08,07,42,9.10
2007,04,08,07,43,9.10
2007,04,08,07,44,9.10
2007,04,08,07,45,9.10
2007,04,08,07,46,9.10
2007,04,08,07,47,9.20
2007,04,08,07,48,9.20
2007,04,08,07,49,9.20
2007,04,08,07,50,9.20
2007,04,08,07,51,9.20
2007,04,08,07,52,9.20
2007,04,08,07,53,9.20
2007,04,08,07,54,9.20
2007,04,08,07,55,9.20
2007,04,08,07,56,9.20
2007,04,08,07,57,9.20
2007,04,08,07,58,9.20
2007,04,08,07,59,9.20
2007,04,08,08,00,9.20
2007,04,08,08,01,9.20
2007,04,08,08,02,9.20
2007,04,08,08,03,9.20
2007,04,08,08,04,9.20
2007,04,08,08,05,9.20
2007,04,08,08,06,9.20
2007,04,08,08,07,9.20
2007,04,08,08,08,9.20
2007,04,08,08,09,9.20
2007,04,08,08,10,9.20
2007,04,08,08,11,9.20
2007,04,08,08,12,9.20
2007,04,08,08,13,9.20
2007,04,08,08,14,9.20
2007,04,08,08,15,9.20
2007,04,08,08,16,9.20
2007,04,08,08,17,9.20
2007,04,08,08,18,9.20
2007,04,08,08,19,9.20
2007,04,08,08,20,9.20
2007,04,08,08,21,9.30
2007,04,08,08,22,9.30
2007,04,08,08,23,9.30
2007,04,08,08,24,9.30
2007,04,08,08,25,9.30
2007,04,08,08,26,9.30
2007,04,08,08,27,9.30
2007,04,08,08,28,9.30
2007,04,08,08,29,9.30
2007,04,08,08,30,9.20
2007,04,08,08,31,9.20
2007,04,08,08,32,9.20
2007,04,08,08,33,9.20
2007,04,08,08,34,9.20
2007,04,08,08,35,9.20
2007,04,08,08,36,9.20
2007,04,08,08,37,9.20
2007,04,08,08,38,9.20
2007,04,08,08,39,9.20
2007,04,08,08,40,9.20
2007,04,08,08,41,9.20
2007,04,08,08,42,9.20
2007,04,08,08,43,9.20
2007,04,08,08,44,9.20
2007,04,08,08,45,9.20
2007,04,08,08,46,9.20
2007,04,08,08,47,9.30
2007,04,08,08,48,9.30
2007,04,08,08,49,9.30
2007,04,08,08,50,9.30
2007,04,08,08,51,9.30
2007,04,08,08,52,9.30
2007,04,08,08,53,9.30
2007,04,08,08,54,9.30
2007,04,08,08,55,9.40
2007,04,08,08,56,9.40
2007,04,08,08,57,9.40
2007,04,08,08,58,9.40
2007,04,08,08,59,9.40
2007,04,08,09,00,9.40
2007,04,08,09,01,9.50
2007,04,08,09,02,9.50
2007,04,08,09,03,9.60
2007,04,08,09,04,9.60
2007,04,08,09,05,9.60
2007,04,08,09,06,9.70
2007,04,08,09,07,9.70
2007,04,08,09,08,9.70
2007,04,08,09,09,9.80
2007,04,08,09,10,9.80
2007,04,08,09,11,9.80
2007,04,08,09,12,9.80
2007,04,08,09,13,9.80
2007,04,08,09,14,9.80
2007,04,08,09,15,9.90
2007,04,08,09,16,9.90
2007,04,08,09,17,9.90
2007,04,08,09,18,9.90
2007,04,08,09,19,9.90
2007,04,08,09,20,10.00
2007,04,08,09,21,10.00
2007,04,08,09,22,10.00
2007,04,08,09,23,10.00
2007,04,08,09,24,10.00
2007,04,08,09,25,10.00
2007,04,08,09,26,10.00
2007,04,08,09,27,10.10
2007,04,08,09,28,10.10
2007,04,08,09,29,10.10
2007,04,08,09,30,10.10
2007,04,08,09,31,10.10
2007,04,08,09,32,10.10
2007,04,08,09,33,10.10
2007,04,08,09,34,10.10
2007,04,08,09,35,10.10
2007,04,08,09,36,10.10
2007,04,08,09,37,10.10
2007,04,08,09,38,10.10
2007,04,08,09,39,10.20
2007,04,08,09,40,10.20
2007,04,08,09,41,10.20
2007,04,08,09,42,10.20
2007,04,08,09,43,10.20
2007,04,08,09,44,10.20
2007,04,08,09,45,10.20
2007,04,08,09,46,10.20
2007,04,08,09,47,10.20
2007,04,08,09,48,10.30
2007,04,08,09,49,10.30
2007,04,08,09,50,10.30
2007,04,08,09,51,10.30
2007,04,08,09,52,10.30
2007,04,08,09,53,10.30
2007,04,08,09,54,10.30
2007,04,08,09,55,10.30
2007,04,08,09,56,10.30
2007,04,08,09,57,10.30
2007,04,08,09,58,10.40
2007,04,08,09,59,10.40
2007,04,08,10,00,10.40
2007,04,08,10,01,10.40
2007,04,08,10,02,10.40
2007,04,08,10,03,10.40
2007,04,08,10,04,10.50
2007,04,08,10,05,10.50
2007,04,08,10,06,10.50
2007,04,08,10,07,10.60
2007,04,08,10,08,10.60
2007,04,08,10,09,10.60
2007,04,08,10,10,10.60
2007,04,08,10,11,10.60
2007,04,08,10,12,10.60
2007,04,08,10,13,10.70
2007,04,08,10,14,10.70
2007,04,08,10,15,10.70
2007,04,08,10,16,10.70
2007,04,08,10,17,10.80
2007,04,08,10,18,10.80
2007,04,08,10,19,10.80
2007,04,08,10,20,10.80
2007,04,08,10,21,10.90
2007,04,08,10,22,10.90
2007,04,08,10,23,10.90
2007,04,08,10,24,10.90
2007,04,08,10,25,10.90
2007,04,08,10,26,11.00
2007,04,08,10,27,11.00
2007,04,08,10,28,11.10
2007,04,08,10,29,11.10
2007,04,08,10,30,11.10
2007,04,08,10,31,11.10
2007,04,08,10,32,11.10
2007,04,08,10,33,11.10
2007,04,08,10,34,11.20
2007,04,08,10,35,11.20
2007,04,08,10,36,11.20
2007,04,08,10,37,11.20
2007,04,08,10,38,11.20
2007,04,08,10,39,11.20
2007,04,08,10,40,11.20
2007,04,08,10,41,11.20
2007,04,08,10,42,11.20
2007,04,08,10,43,11.10
2007,04,08,10,44,11.10
2007,04,08,10,45,11.10
2007,04,08,10,46,11.10
2007,04,08,10,47,11.00
2007,04,08,10,48,11.00
2007,04,08,10,49,11.10
2007,04,08,10,50,11.10
2007,04,08,10,51,11.10
2007,04,08,10,52,11.10
2007,04,08,10,53,11.10
2007,04,08,10,54,11.10
2007,04,08,10,55,11.10
2007,04,08,10,56,11.10
2007,04,08,10,57,11.10
2007,04,08,10,58,11.10
2007,04,08,10,59,11.10
2007,04,08,11,00,11.10
2007,04,08,11,01,11.10
2007,04,08,11,02,11.10
2007,04,08,11,03,11.10
2007,04,08,11,04,11.00
2007,04,08,11,05,11.00
2007,04,08,11,06,11.00
2007,04,08,11,07,11.00
2007,04,08,11,08,11.00
2007,04,08,11,09,10.90
2007,04,08,11,10,10.90
2007,04,08,11,11,10.90
2007,04,08,11,12,10.90
2007,04,08,11,13,11.00
2007,04,08,11,14,11.00
2007,04,08,11,15,11.00
2007,04,08,11,16,11.00
2007,04,08,11,17,11.00
2007,04,08,11,18,11.10
2007,04,08,11,19,11.00
2007,04,08,11,20,11.00
2007,04,08,11,21,11.00
2007,04,08,11,22,11.00
2007,04,08,11,23,11.10
2007,04,08,11,24,11.10
2007,04,08,11,25,11.10
2007,04,08,11,26,11.00
2007,04,08,11,27,10.90
2007,04,08,11,28,10.90
2007,04,08,11,29,10.90
2007,04,08,11,30,10.90
2007,04,08,11,31,10.90
2007,04,08,11,32,10.80
2007,04,08,11,33,10.80
2007,04,08,11,34,10.80
2007,04,08,11,35,10.80
2007,04,08,11,36,10.80
2007,04,08,11,37,10.70
2007,04,08,11,38,10.70
2007,04,08,11,39,10.70
2007,04,08,11,40,10.70
2007,04,08,11,41,10.70
2007,04,08,11,42,10.70
2007,04,08,11,43,10.70
2007,04,08,11,44,10.70
2007,04,08,11,45,10.60
2007,04,08,11,46,10.60
2007,04,08,11,47,10.60
2007,04,08,11,48,10.60
2007,04,08,11,49,10.60
2007,04,08,11,50,10.50
2007,04,08,11,51,10.50
2007,04,08,11,52,10.50
2007,04,08,11,53,10.40
2007,04,08,11,54,10.40
2007,04,08,11,55,10.40
2007,04,08,11,56,10.40
2007,04,08,11,57,10.40
2007,04,08,11,58,10.40
2007,04,08,11,59,10.40
2007,04,08,12,00,10.40
2007,04,08,12,01,10.50
2007,04,08,12,02,10.50
2007,04,08,12,03,10.50
2007,04,08,12,04,10.50
2007,04,08,12,05,10.50
2007,04,08,12,06,10.40
2007,04,08,12,07,10.40
2007,04,08,12,08,10.40
2007,04,08,12,09,10.40
2007,04,08,12,10,10.40
2007,04,08,12,11,10.40
2007,04,08,12,12,10.40
2007,04,08,12,13,10.40
2007,04,08,12,14,10.40
2007,04,08,12,15,10.40
2007,04,08,12,16,10.40
2007,04,08,12,17,10.50
2007,04,08,12,18,10.50
2007,04,08,12,19,10.50
2007,04,08,12,20,10.60
2007,04,08,12,21,10.60
2007,04,08,12,22,10.60
2007,04,08,12,23,10.60
2007,04,08,12,24,10.60
2007,04,08,12,25,10.60
2007,04,08,12,26,10.60
2007,04,08,12,27,10.70
2007,04,08,12,28,10.70
2007,04,08,12,29,10.70
2007,04,08,12,30,10.70
2007,04,08,12,31,10.70
2007,04,08,12,32,10.70
2007,04,08,12,33,10.80
2007,04,08,12,34,10.80
2007,04,08,12,35,10.80
2007,04,08,12,36,10.80
2007,04,08,12,37,10.80
2007,04,08,12,38,10.80
2007,04,08,12,39,10.90
2007,04,08,12,40,10.90
2007,04,08,12,41,10.90
2007,04,08,12,42,10.90
2007,04,08,12,43,10.90
2007,04,08,12,44,11.00
2007,04,08,12,45,11.00
2007,04,08,12,46,11.00
2007,04,08,12,47,11.00
2007,04,08,12,48,10.90
2007,04,08,12,49,10.90
2007,04,08,12,50,10.90
2007,04,08,12,51,10.90
2007,04,08,12,52,10.90
2007,04,08,12,53,11.00
2007,04,08,12,54,11.00
2007,04,08,12,55,11.10
2007,04,08,12,56,11.10
2007,04,08,12,57,11.10
2007,04,08,12,58,11.20
2007,04,08,12,59,11.20
2007,04,08,13,00,11.20
2007,04,08,13,01,11.20
2007,04,08,13,02,11.10
2007,04,08,13,03,11.10
2007,04,08,13,04,11.10
2007,04,08,13,05,11.10
2007,04,08,13,06,11.10
2007,04,08,13,07,11.10
2007,04,08,13,08,11.10
2007,04,08,13,09,11.10
2007,04,08,13,10,11.10
2007,04,08,13,11,11.10
2007,04,08,13,12,11.10
2007,04,08,13,13,11.00
2007,04,08,13,14,11.00
2007,04,08,13,15,11.10
2007,04,08,13,16,11.10
2007,04,08,13,17,11.10
2007,04,08,13,18,11.10
2007,04,08,13,19,11.10
2007,04,08,13,20,11.10
2007,04,08,13,21,11.20
2007,04,08,13,22,11.20
2007,04,08,13,23,11.20
2007,04,08,13,24,11.20
2007,04,08,13,25,11.20
2007,04,08,13,26,11.20
2007,04,08,13,27,11.20
2007,04,08,13,28,11.20
2007,04,08,13,29,11.20
2007,04,08,13,30,11.20
2007,04,08,13,31,11.20
2007,04,08,13,32,11.30
2007,04,08,13,33,11.30
2007,04,08,13,34,11.30
2007,04,08,13,35,11.20
2007,04,08,13,36,11.20
2007,04,08,13,37,11.20
2007,04,08,13,38,11.20
2007,04,08,13,39,11.20
2007,04,08,13,40,11.20
2007,04,08,13,41,11.20
2007,04,08,13,42,11.30
2007,04,08,13,43,11.30
2007,04,08,13,44,11.30
2007,04,08,13,45,11.20
2007,04,08,13,46,11.20
2007,04,08,13,47,11.20
2007,04,08,13,48,11.20
2007,04,08,13,49,11.20
2007,04,08,13,50,11.20
2007,04,08,13,51,11.20
2007,04,08,13,52,11.20
2007,04,08,13,53,11.20
2007,04,08,13,54,11.10
2007,04,08,13,55,11.10
2007,04,08,13,56,11.10
2007,04,08,13,57,11.10
2007,04,08,13,58,11.10
2007,04,08,13,59,11.10
2007,04,08,14,00,11.20
2007,04,08,14,01,11.20
2007,04,08,14,02,11.20
2007,04,08,14,03,11.20
2007,04,08,14,04,11.20
2007,04,08,14,05,11.20
2007,04,08,14,06,11.20
2007,04,08,14,07,11.20
2007,04,08,14,08,11.20
2007,04,08,14,09,11.10
2007,04,08,14,10,11.10
2007,04,08,14,11,11.10
2007,04,08,14,12,11.10
2007,04,08,14,13,11.10
2007,04,08,14,14,11.00
2007,04,08,14,15,11.00
2007,04,08,14,16,10.90
2007,04,08,14,17,10.90
2007,04,08,14,18,10.80
2007,04,08,14,19,10.80
2007,04,08,14,20,10.80
2007,04,08,14,21,10.80
2007,04,08,14,22,10.80
2007,04,08,14,23,10.80
2007,04,08,14,24,10.80
2007,04,08,14,25,10.70
2007,04,08,14,26,10.70
2007,04,08,14,27,10.70
2007,04,08,14,28,10.70
2007,04,08,14,29,10.70
2007,04,08,14,30,10.60
2007,04,08,14,31,10.60
2007,04,08,14,32,10.60
2007,04,08,14,33,10.50
2007,04,08,14,34,10.50
2007,04,08,14,35,10.40
2007,04,08,14,36,10.40
2007,04,08,14,37,10.30
2007,04,08,14,38,10.30
2007,04,08,14,39,10.30
2007,04,08,14,40,10.30
2007,04,08,14,41,10.30
2007,04,08,14,42,10.30
2007,04,08,14,43,10.30
2007,04,08,14,44,10.30
2007,04,08,14,45,10.20
2007,04,08,14,46,10.20
2007,04,08,14,47,10.20
2007,04,08,14,48,10.20
2007,04,08,14,49,10.10
2007,04,08,14,50,10.10
2007,04,08,14,51,10.10
2007,04,08,14,52,10.10
2007,04,08,14,53,10.10
2007,04,08,14,54,10.10
2007,04,08,14,55,10.10
2007,04,08,14,56,10.10
2007,04,08,14,57,10.10
2007,04,08,14,58,10.10
2007,04,08,14,59,10.00
2007,04,08,15,00,10.00
2007,04,08,15,01,9.90
2007,04,08,15,02,9.90
2007,04,08,15,03,9.90
2007,04,08,15,04,9.90
2007,04,08,15,05,9.90
2007,04,08,15,06,9.80
2007,04,08,15,07,9.80
2007,04,08,15,08,9.80
2007,04,08,15,09,9.80
2007,04,08,15,10,9.80
2007,04,08,15,11,9.80
2007,04,08,15,12,9.80
2007,04,08,15,13,9.80
2007,04,08,15,14,9.80
2007,04,08,15,15,9.80
2007,04,08,15,16,9.80
2007,04,08,15,17,9.80
2007,04,08,15,18,9.80
2007,04,08,15,19,9.80
2007,04,08,15,20,9.80
2007,04,08,15,21,9.80
2007,04,08,15,22,9.80
2007,04,08,15,23,9.80
2007,04,08,15,24,9.80
2007,04,08,15,25,9.80
2007,04,08,15,26,9.80
2007,04,08,15,27,9.70
2007,04,08,15,28,9.70
2007,04,08,15,29,9.70
2007,04,08,15,30,9.70
2007,04,08,15,31,9.70
2007,04,08,15,32,9.70
2007,04,08,15,33,9.70
2007,04,08,15,34,9.70
2007,04,08,15,35,9.60
2007,04,08,15,36,9.60
2007,04,08,15,37,9.60
2007,04,08,15,38,9.60
2007,04,08,15,39,9.60
2007,04,08,15,40,9.60
2007,04,08,15,41,9.60
2007,04,08,15,42,9.60
2007,04,08,15,43,9.60
2007,04,08,15,44,9.60
2007,04,08,15,45,9.50
2007,04,08,15,46,9.50
2007,04,08,15,47,9.50
2007,04,08,15,48,9.50
2007,04,08,15,49,9.50
2007,04,08,15,50,9.50
2007,04,08,15,51,9.40
2007,04,08,15,52,9.40
2007,04,08,15,53,9.50
2007,04,08,15,54,9.50
2007,04,08,15,55,9.50
2007,04,08,15,56,9.50
2007,04,08,15,57,9.50
2007,04,08,15,58,9.50
2007,04,08,15,59,9.50
2007,04,08,16,00,9.40
2007,04,08,16,01,9.40
2007,04,08,16,02,9.40
2007,04,08,16,03,9.40
2007,04,08,16,04,9.40
2007,04,08,16,05,9.40
2007,04,08,16,06,9.40
2007,04,08,16,07,9.40
2007,04,08,16,08,9.40
2007,04,08,16,09,9.40
2007,04,08,16,10,9.40
2007,04,08,16,11,9.30
2007,04,08,16,12,9.30
2007,04,08,16,13,9.30
2007,04,08,16,14,9.30
2007,04,08,16,15,9.30
2007,04,08,16,16,9.30
2007,04,08,16,17,9.30
2007,04,08,16,18,9.30
2007,04,08,16,19,9.30
2007,04,08,16,20,9.30
2007,04,08,16,21,9.30
2007,04,08,16,22,9.30
2007,04,08,16,23,9.30
2007,04,08,16,24,9.30
2007,04,08,16,25,9.30
2007,04,08,16,26,9.30
2007,04,08,16,27,9.30
2007,04,08,16,28,9.30
2007,04,08,16,29,9.30
2007,04,08,16,30,9.30
2007,04,08,16,31,9.20
2007,04,08,16,32,9.20
2007,04,08,16,33,9.20
2007,04,08,16,34,9.20
2007,04,08,16,35,9.20
2007,04,08,16,36,9.30
2007,04,08,16,37,9.30
2007,04,08,16,38,9.30
2007,04,08,16,39,9.30
2007,04,08,16,40,9.30
2007,04,08,16,41,9.30
2007,04,08,16,42,9.30
2007,04,08,16,43,9.30
2007,04,08,16,44,9.30
2007,04,08,16,45,9.30
2007,04,08,16,46,9.30
2007,04,08,16,47,9.30
2007,04,08,16,48,9.40
2007,04,08,16,49,9.40
2007,04,08,16,50,9.30
2007,04,08,16,51,9.30
2007,04,08,16,52,9.30
2007,04,08,16,53,9.30
2007,04,08,16,54,9.30
2007,04,08,16,55,9.30
2007,04,08,16,56,9.30
2007,04,08,16,57,9.30
2007,04,08,16,58,9.30
2007,04,08,16,59,9.30
2007,04,08,17,00,9.30
2007,04,08,17,01,9.30
2007,04,08,17,02,9.30
2007,04,08,17,03,9.30
2007,04,08,17,04,9.30
2007,04,08,17,05,9.20
2007,04,08,17,06,9.20
2007,04,08,17,07,9.20
2007,04,08,17,08,9.20
2007,04,08,17,09,9.20
2007,04,08,17,10,9.20
2007,04,08,17,11,9.20
2007,04,08,17,12,9.20
2007,04,08,17,13,9.20
2007,04,08,17,14,9.20
2007,04,08,17,15,9.20
2007,04,08,17,16,9.20
2007,04,08,17,17,9.20
2007,04,08,17,18,9.20
2007,04,08,17,19,9.20
2007,04,08,17,20,9.20
2007,04,08,17,21,9.10
2007,04,08,17,22,9.10
2007,04,08,17,23,9.10
2007,04,08,17,24,9.10
2007,04,08,17,25,9.10
2007,04,08,17,26,9.10
2007,04,08,17,27,9.10
2007,04,08,17,28,9.10
2007,04,08,17,29,9.10
2007,04,08,17,30,9.10
2007,04,08,17,31,9.10
2007,04,08,17,32,9.10
2007,04,08,17,33,9.10
2007,04,08,17,34,9.10
2007,04,08,17,35,9.10
2007,04,08,17,36,9.10
2007,04,08,17,37,9.10
2007,04,08,17,38,9.10